Погода в Новоямском

Россия / Брянская область     52°12′25″N   34°29′05″E
темп.,
°C
ветер,
м/с
пор.,
м/с
влажн.,
%
обл.,
%
осадки,
мм/ч
давл.,
гПа
погр.,
м
15 мая, сб
сб1500:00+13ю22902 0.1 100812
03:00+12ююв36930 0.1 100895
06:00+11ю38947 0.0 1009175
09:00+16ююз58770 0.0 1009563
12:00+19ююз796836 1.2 10091515
15:00+19юз796611 3.1 10101623
18:00+18юз47745 1.0 1010968
21:00+13ююз35915 1.4 101279
16 мая, вс
вс1600:00+12ю359112 0.0 101274
03:00+11ю359349 0.0 101370
06:00+11ююз37945 0.0 1013166
09:00+16юз35750 0.0 1014524
12:00+19ююз45610 0.0 10141210
15:00+21ююз455688 0.0 10131521
18:00+21ююз1366100 0.0 10121171
21:00+15всв2278100 0.0 101311
17 мая, пн
пн1700:00+14всв35825 0.0 101270
03:00+15всв41078100 0.0 1011220
06:00+14всв4118674 0.3 1009257
09:00+19в61278100 0.3 1007466
12:00+23вюв7135991 0.0 1006885
15:00+24юв71262100 0.0 10051406
18:00+21юв6117245 0.0 1003844
21:00+18вюв7168931 1.9 1003502
18 мая, вт
вт1800:00+17юв61491100 0.1 1002436
03:00+15ю71292100 0.2 1003698
06:00+14ю61191100 0.1 1004822
09:00+15ююз6984100 0.1 1006893
12:00+18ю6874100 0.3 10071169
15:00+19ю576970 1.3 10061317
18:00+18ю458392 2.9 1006574
21:00+14ююв229258 4.4 100626
19 мая, ср
ср1900:00+13ююз41096100 2.1 1005284
03:00+13з2398100 2.6 1004116
06:00+12з71397100 5.8 1005794
09:00+12з51093100 10.8 1006668
12:00+15з81078100 0.9 10081208
15:00+18з810591 1.3 10091774
18:00+17зюз58689 0.1 10091005
21:00+12зюз2283100 0.1 101121